EW0608 Weather Reports


time (UTC)temp
F
wind
direction
speed
knots
gust
knots
rain 1hr
in
rain 24hr
in
rain mn
in
humidity
%
barometer
mb
20260904111510 67 234 0.0 0.0 0.00 0.00 0.00 95 1013.7
20260904110009 67 234 0.0 0.0 0.00 0.00 0.00 95 1013.8
20260904104509 67 234 0.0 0.0 0.00 0.00 0.00 95 1014.0
20260904103009 67 234 0.0 0.0 0.00 0.00 0.00 95 1013.7
20260904101511 67 234 0.0 0.0 0.00 0.00 0.00 95 1013.7
20260904100007 67 234 0.0 0.0 0.00 0.00 0.00 95 1013.8
20260904094511 67 234 0.0 0.0 0.00 0.00 0.00 95 1013.6
20260904093015 67 234 0.0 0.0 0.00 0.00 0.00 95 1013.8
20260904091506 67 234 0.0 0.0 0.00 0.00 0.00 95 1013.6
20260904090005 67 234 0.0 0.0 0.00 0.00 0.00 95 1013.6
20260904084505 67 234 0.0 0.0 0.00 0.00 0.00 95 1012.6
20260904083005 67 234 0.0 0.0 0.00 0.00 0.00 95 1012.4
20260904081507 66 234 0.0 0.0 0.00 0.00 0.00 95 1012.5
20260904080002 67 234 0.0 0.0 0.00 0.00 0.00 95 1012.9
20260904074500 67 234 0.0 0.0 0.00 0.00 0.00 95 1013.0
20260904073101 67 234 0.0 0.0 0.00 0.00 0.00 95 1012.9
20260904071601 67 234 0.0 0.0 0.00 0.00 0.00 95 1012.8
20260904070059 67 234 0.0 0.0 0.00 0.00 0.00 95 1012.6
20260904064557 67 234 0.0 0.0 0.00 0.00 0.00 95 1012.6
20260904063057 67 234 0.0 0.0 0.00 0.00 0.00 95 1012.6
20260904061601 67 234 0.0 0.0 0.00 0.00 0.00 95 1012.6
20260904060907 68 234 0.0 0.0 0.00 0.00 0.00 95 1013.9
20260904060341 68 234 0.0 0.0 0.00 0.00 0.00 95 1014.0
20260904060051 68 234 0.0 0.0 0.00 0.00 0.00 95 1012.8
20260904055850 68 234 0.0 0.0 0.00 0.00 0.00 95 1014.2
20260904055343 68 234 0.0 0.0 0.00 0.00 0.00 95 1014.1
20260904054855 68 234 0.0 0.0 0.00 0.00 0.00 95 1014.2
20260904054551 68 234 0.0 0.0 0.00 0.00 0.00 95 1013.0
20260904054348 68 234 0.0 0.0 0.00 0.00 0.00 95 1014.3
20260904053902 68 234 0.0 0.0 0.00 0.00 0.00 95 1014.4
20260904053353 68 234 0.0 0.0 0.00 0.00 0.00 95 1014.6
20260904053059 68 234 0.0 0.0 0.00 0.00 0.00 95 1013.4
20260904052844 68 234 0.0 0.0 0.00 0.00 0.00 95 1014.8
20260904052336 68 234 0.0 0.0 0.00 0.00 0.00 95 1014.8
20260904051848 68 234 0.0 0.0 0.00 0.00 0.00 95 1014.7
20260904051546 68 234 0.0 0.0 0.00 0.00 0.00 95 1013.6
20260904051341 68 234 0.0 0.0 0.00 0.00 0.00 95 1014.9
20260904050934 68 234 0.0 0.0 0.00 0.00 0.00 95 1015.2
20260904050343 68 234 0.0 0.0 0.00 0.00 0.00 95 1015.3
20260904050057 68 234 0.0 0.0 0.00 0.00 0.00 95 1014.1
20260904045851 68 234 0.0 0.0 0.00 0.00 0.00 95 1015.3
20260904045346 68 234 0.0 0.0 0.00 0.00 0.00 95 1015.5
20260904044837 68 234 0.0 0.0 0.00 0.00 0.00 95 1015.5
20260904044553 68 234 0.0 0.0 0.00 0.00 0.00 95 1014.3
20260904044350 69 234 0.0 0.0 0.00 0.00 0.00 95 1015.7
20260904043842 69 234 0.0 0.0 0.00 0.00 0.00 95 1015.8
20260904043415 69 234 0.0 0.0 0.00 0.00 0.00 95 1015.9
20260904043027 68 234 0.0 0.0 0.00 0.00 0.00 95 1014.6
20260904042926 69 234 0.0 0.0 0.00 0.00 0.00 95 1015.9
20260904042413 69 234 0.0 0.0 0.00 0.00 0.00 95 1015.9
20260904041843 69 234 0.0 0.0 0.00 0.00 0.00 95 1015.9
20260904041543 68 234 0.0 0.0 0.00 0.00 0.00 95 1014.7
20260904040910 69 234 0.0 0.0 0.00 0.00 0.00 95 1016.3
20260904040343 69 234 0.0 0.0 0.00 0.00 0.00 95 1016.5
20260904040053 68 234 0.0 0.0 0.00 0.00 0.00 95 1015.1
20260904035853 69 234 0.0 0.0 0.00 0.00 0.00 95 1016.4
20260904035346 69 234 0.0 0.0 0.00 0.00 0.00 95 1016.5
20260904034839 69 234 0.0 0.0 0.00 0.00 0.00 95 1016.6
20260904034508 68 234 0.0 0.0 0.00 0.00 0.00 95 1015.3
20260904034408 69 234 0.0 0.0 0.00 0.00 0.00 95 1016.5
20260904033845 69 234 0.0 3.5 0.00 0.00 0.00 95 1016.4
20260904033337 69 177 0.0 3.5 0.00 0.00 0.00 95 1016.5
20260904033103 68 150 0.0 3.5 0.00 0.00 0.00 95 1015.7
20260904032851 69 86 0.0 0.0 0.00 0.00 0.00 95 1017.0
20260904032343 69 156 284.2 284.2 0.00 0.00 0.00 94 1016.6
20260904031836 69 100 0.0 0.0 0.00 0.00 0.00 94 1017.5
20260904031510 68 100 0.0 0.0 0.00 0.00 0.00 94 1015.7
20260904031348 69 100 0.0 0.0 0.00 0.00 0.00 95 1016.9
20260904030841 69 100 0.0 0.0 0.00 0.00 0.00 94 1017.4
20260904030354 69 238 0.0 0.0 0.00 0.00 0.00 94 1017.5
20260904030043 69 167 0.0 0.0 0.00 0.00 0.00 94 1016.2
20260904025842 69 167 0.0 0.0 0.00 0.00 0.00 94 1017.5
20260904025335 69 92 0.0 0.0 0.00 0.00 0.00 94 1018.1
20260904024907 69 30 0.0 0.0 0.00 0.00 0.00 94 1018.6
20260904024540 69 32 0.0 0.0 0.00 0.00 0.00 94 1017.3
20260904024340 69 92 0.0 0.0 0.00 0.00 0.00 94 1018.5
20260904023852 70 277 0.0 0.9 0.00 0.00 0.00 94 1018.7
20260904023344 70 18 0.0 0.0 0.00 0.00 0.00 94 1017.7
20260904023057 70 169 0.0 1.7 0.00 0.00 0.00 93 1016.2
20260904022857 70 169 0.0 1.7 0.00 0.00 0.00 93 1017.3
20260904022408 70 257 0.9 1.7 0.00 0.00 0.00 92 1017.8
20260904021900 71 257 0.9 11.3 0.00 0.00 0.00 91 1017.1
20260904021551 71 163 0.0 11.3 0.00 0.00 0.00 91 1015.4
20260904021351 72 163 1.7 11.3 0.00 0.00 0.00 89 1016.8
20260904020904 75 106 2.6 7.8 0.00 0.00 0.00 86 1017.1
20260904020357 76 338 2.6 4.3 0.00 0.00 0.00 84 1017.6
20260904020059 76 348 0.0 0.9 0.00 0.00 0.00 85 1015.6
20260904015847 77 348 0.0 0.9 0.00 0.00 0.00 86 1016.6
20260904015340 77 134 0.0 0.9 0.00 0.00 0.00 88 1016.0
20260904014852 77 134 0.0 3.5 0.00 0.00 0.00 90 1015.9
20260904014506 77 355 0.0 3.5 0.00 0.00 0.00 91 1014.7
20260904014405 77 355 0.0 3.5 0.00 0.00 0.00 91 1016.0
20260904013836 77 136 0.0 2.6 0.00 0.00 0.00 92 1015.8
20260904013349 77 136 0.0 2.6 0.00 0.00 0.00 93 1015.8
20260904013046 77 136 0.0 2.6 0.00 0.00 0.00 93 1014.4
20260904012843 77 80 0.9 2.6 0.00 0.00 0.00 93 1015.8
20260904012414 77 68 0.0 2.6 0.00 0.00 0.00 94 1015.4
20260904011846 77 68 0.9 2.6 0.00 0.00 0.00 94 1015.0
20260904011607 77 28 0.0 1.7 0.00 0.00 0.00 94 1013.6
20260904011400 77 28 0.9 1.7 0.00 0.00 0.00 94 1015.0
20260904010852 77 238 0.0 0.0 0.00 0.00 0.00 94 1014.6
20260904010408 77 238 0.0 0.0 0.00 0.00 0.00 94 1014.4
20260904010100 77 238 0.0 0.0 0.00 0.00 0.00 94 1012.8
20260904005856 77 238 0.0 0.0 0.00 0.00 0.00 94 1014.3
20260904005408 77 238 0.0 0.0 0.00 0.00 0.00 94 1014.4
20260904004840 78 238 0.0 0.0 0.00 0.00 0.00 94 1014.3
20260904004552 77 238 0.0 0.0 0.00 0.00 0.00 93 1012.9
20260904004352 78 238 0.0 0.0 0.00 0.00 0.00 93 1014.3
20260904003845 78 238 0.0 0.0 0.00 0.00 0.00 93 1014.4
20260904003357 78 238 0.0 0.0 0.00 0.00 0.00 93 1014.4
20260904003059 78 238 0.0 0.0 0.00 0.00 0.00 93 1013.0
20260904002850 78 238 0.0 0.0 0.00 0.00 0.00 93 1014.4
20260904002403 78 238 0.0 0.0 0.00 0.00 0.00 93 1014.2
20260904001835 78 238 0.0 0.0 0.00 0.00 0.00 93 1014.2
20260904001548 78 238 0.0 0.0 0.00 0.00 0.00 93 1012.6
20260904001348 78 238 0.0 0.0 0.00 0.00 0.00 93 1014.0
20260904000840 79 238 0.0 0.0 0.00 0.00 0.00 93 1014.1
20260904000355 79 238 0.0 0.0 0.00 0.00 0.00 93 1014.4
20260904000043 78 238 0.0 0.0 0.00 0.00 0.00 93 1013.0
20260903235842 79 238 0.0 0.0 0.00 0.00 0.00 93 1014.5
20260903235338 79 238 0.0 0.0 0.00 0.00 0.00 93 1014.5
20260903234851 79 238 0.0 0.0 0.00 0.00 0.00 92 1014.6
20260903234543 79 238 0.0 0.0 0.00 0.00 0.00 92 1013.3
20260903234343 79 238 0.0 0.0 0.00 0.00 0.00 92 1014.7
20260903233836 80 238 0.0 0.0 0.00 0.00 0.00 92 1014.8
20260903233407 80 238 0.0 0.0 0.00 0.00 0.00 92 1014.8
20260903233040 80 238 0.0 0.0 0.00 0.00 0.00 92 1013.4
20260903232349 80 238 0.0 0.0 0.00 0.00 0.00 91 1014.9
20260903231843 81 238 0.0 0.0 0.00 0.00 0.00 91 1014.7
20260903231515 80 238 0.0 0.0 0.00 0.00 0.00 91 1013.2
20260903231415 81 238 0.0 0.0 0.00 0.00 0.00 91 1014.7
20260903230845 81 238 0.0 0.0 0.00 0.00 0.00 91 1014.5
20260903230358 81 238 0.0 0.0 0.00 0.00 0.00 90 1014.0
20260903230100 81 238 0.0 0.0 0.00 0.00 0.00 90 1012.5
20260903225844 81 238 0.0 0.0 0.00 0.00 0.00 90 1014.0
20260903225337 81 238 0.0 0.0 0.00 0.00 0.00 90 1013.9
20260903224909 81 238 0.0 0.0 0.00 0.00 0.00 89 1013.8
20260903224542 81 238 0.0 0.0 0.00 0.00 0.00 89 1012.3
20260903224342 82 238 0.0 0.0 0.00 0.00 0.00 89 1013.6
20260903223853 82 238 0.0 0.0 0.00 0.00 0.00 89 1013.8
20260903223348 82 238 0.0 0.0 0.00 0.00 0.00 88 1013.8
20260903223040 82 238 0.0 0.0 0.00 0.00 0.00 88 1012.3
20260903222839 82 238 0.0 0.0 0.00 0.00 0.00 88 1013.7
20260903222352 83 238 0.0 0.0 0.00 0.00 0.00 87 1013.8
20260903221844 83 238 0.0 0.0 0.00 0.00 0.00 86 1013.8
20260903221539 82 238 0.0 0.0 0.00 0.00 0.00 86 1012.3
20260903221338 83 238 0.0 0.0 0.00 0.00 0.00 86 1013.7
20260903220850 83 238 0.0 0.0 0.00 0.00 0.00 85 1013.4
20260903220343 83 238 0.0 0.0 0.00 0.00 0.00 85 1013.5
20260903220104 83 238 0.0 0.0 0.00 0.00 0.00 85 1012.1
20260903215853 83 238 0.0 0.0 0.00 0.00 0.00 85 1013.5
20260903215346 83 238 0.0 0.0 0.00 0.00 0.00 85 1013.3
20260903214839 84 238 0.0 0.9 0.00 0.00 0.00 85 1013.3
20260903214553 83 238 0.0 0.9 0.00 0.00 0.00 84 1011.8
20260903214353 84 238 0.0 0.9 0.00 0.00 0.00 83 1013.1
20260903213845 84 238 0.0 0.0 0.00 0.00 0.00 83 1013.3
20260903213358 85 238 0.0 2.6 0.00 0.00 0.00 80 1013.3
20260903213053 86 238 0.0 2.6 0.00 0.00 0.00 77 1011.9
20260903212849 86 238 0.9 2.6 0.00 0.00 0.00 73 1013.3
20260903212401 87 161 0.9 2.6 0.00 0.00 0.00 77 1013.3
20260903211837 87 153 0.9 3.5 0.00 0.00 0.00 72 1013.4
20260903211551 86 156 0.9 3.5 0.00 0.00 0.00 72 1012.1
20260903211351 86 208 0.9 2.6 0.00 0.00 0.00 80 1013.5
20260903210844 86 204 0.0 1.7 0.00 0.00 0.00 78 1013.6
20260903210453 88 204 0.0 4.3 0.00 0.00 0.00 72 1013.6
20260903210100 88 204 0.0 4.3 0.00 0.00 0.00 71 1012.2
20260903205855 89 204 1.7 4.3 0.00 0.00 0.00 66 1013.7
20260903205347 88 194 0.9 2.6 0.00 0.00 0.00 68 1013.9
20260903204843 88 232 0.0 4.3 0.00 0.00 0.00 72 1013.8
20260903204537 88 190 0.0 4.3 0.00 0.00 0.00 70 1012.5
20260903204337 88 221 0.0 4.3 0.00 0.00 0.00 67 1013.9
20260903203849 87 81 0.0 2.6 0.00 0.00 0.00 72 1014.0
20260903203342 89 81 0.0 2.6 0.00 0.00 0.00 68 1013.9
20260903203037 88 81 0.0 2.6 0.00 0.00 0.00 68 1012.6
20260903202836 89 134 0.0 2.6 0.00 0.00 0.00 68 1014.0
20260903202349 89 89 0.9 2.6 0.00 0.00 0.00 68 1014.0
20260903201902 89 158 0.9 3.5 0.00 0.00 0.00 67 1014.1
20260903201555 88 158 0.0 3.5 0.00 0.00 0.00 67 1012.8
20260903201354 89 194 0.9 5.2 0.00 0.00 0.00 69 1014.2
20260903200846 89 286 1.7 6.1 0.00 0.00 0.00 69 1014.3
20260903200400 89 126 0.9 4.3 0.00 0.00 0.00 72 1014.3
20260903200009 88 107 0.9 4.3 0.00 0.00 0.00 71 1013.0
20260903195908 89 154 1.7 4.3 0.00 0.00 0.00 70 1014.3
20260903195339 89 132 0.9 3.5 0.00 0.00 0.00 70 1014.4
20260903194852 88 160 0.9 3.5 0.00 0.00 0.00 70 1014.5
20260903194544 87 157 0.9 3.5 0.00 0.00 0.00 71 1013.3
20260903194345 88 142 1.7 3.5 0.00 0.00 0.00 70 1014.6
20260903193838 88 166 1.7 5.2 0.00 0.00 0.00 71 1014.6
20260903193351 87 274 0.0 5.2 0.00 0.00 0.00 71 1014.8
20260903193004 87 240 0.9 5.2 0.00 0.00 0.00 73 1013.5
20260903192904 87 165 0.0 2.6 0.00 0.00 0.00 72 1014.8
20260903192457 88 234 0.0 2.6 0.00 0.00 0.00 72 1015.0
20260903191905 87 234 0.9 4.3 0.00 0.00 0.00 70 1015.1
20260903191536 87 228 0.9 4.3 0.00 0.00 0.00 69 1013.8
20260903191336 88 250 0.9 4.3 0.00 0.00 0.00 69 1015.2
20260903190849 88 229 0.9 2.6 0.00 0.00 0.00 70 1015.3
20260903190342 88 101 0.9 5.2 0.00 0.00 0.00 71 1015.4
20260903190053 87 80 0.0 5.2 0.00 0.00 0.00 72 1014.1
20260903185852 87 80 0.9 5.2 0.00 0.00 0.00 72 1015.4
20260903185343 88 170 0.9 3.5 0.00 0.00 0.00 68 1015.5
20260903184856 88 115 1.7 3.5 0.00 0.00 0.00 69 1015.6
20260903184547 88 84 0.9 5.2 0.00 0.00 0.00 70 1014.4
20260903184346 88 84 1.7 5.2 0.00 0.00 0.00 71 1015.8
20260903183840 88 182 1.7 5.2 0.00 0.00 0.00 72 1015.8
20260903183353 87 135 1.7 3.5 0.00 0.00 0.00 76 1015.9
20260903183006 86 150 0.0 6.1 0.00 0.00 0.00 77 1014.6
20260903182905 86 150 0.9 6.1 0.00 0.00 0.00 76 1016.0
20260903182338 85 166 2.6 6.1 0.00 0.00 0.00 75 1016.1
20260903181850 85 109 0.9 4.3 0.00 0.00 0.00 77 1016.1
20260903181551 84 178 0.0 4.3 0.00 0.00 0.00 78 1014.8
20260903181342 84 344 0.9 2.6 0.00 0.00 0.00 76 1016.1
20260903180344 83 126 0.9 3.5 0.00 0.00 0.00 81 1016.2
20260903180034 82 169 0.9 5.2 0.00 0.00 0.00 83 1015.1
20260903175910 82 185 1.7 5.2 0.00 0.00 0.00 82 1016.3
20260903175345 83 218 0.9 2.6 0.00 0.00 0.00 81 1016.5
20260903174838 83 115 0.9 4.3 0.00 0.00 0.00 85 1016.6
20260903174549 82 93 0.9 4.3 0.00 0.00 0.00 86 1015.4
20260903174348 81 93 0.9 4.3 0.00 0.00 0.00 85 1016.7
20260903173936 81 31 0.9 4.3 0.00 0.00 0.00 86 1016.7
20260903173348 80 143 1.7 3.5 0.00 0.00 0.00 86 1016.9
20260903173106 80 238 0.0 3.5 0.00 0.00 0.00 85 1015.6
20260903172859 80 159 0.9 3.5 0.00 0.00 0.00 87 1016.9
20260903172351 79 243 0.9 3.5 0.00 0.00 0.00 90 1017.0
20260903171904 77 169 0.0 1.7 0.00 0.00 0.00 92 1017.4
20260903171556 76 169 0.0 1.7 0.00 0.00 0.00 91 1016.2
20260903171354 76 169 0.0 1.7 0.00 0.00 0.00 90 1017.6
20260903170343 77 46 0.9 3.5 0.00 0.00 0.00 90 1017.5
20260903170021 77 145 1.7 3.5 0.00 0.00 0.00 91 1016.4
20260903165913 77 145 1.7 3.5 0.00 0.00 0.00 91 1017.7
20260903165344 76 144 0.0 1.7 0.00 0.00 0.00 93 1017.8
20260903164857 75 237 0.0 1.7 0.00 0.00 0.00 94 1018.0
20260903164551 75 237 0.0 0.0 0.00 0.00 0.00 95 1016.8
20260903163843 75 237 0.0 0.0 0.00 0.00 0.00 95 1018.0
20260903163042 74 237 0.0 0.0 0.00 0.00 0.00 94 1017.0
20260903162352 74 237 0.0 0.0 0.00 0.00 0.00 94 1018.5
20260903161844 74 238 0.0 0.0 0.00 0.00 0.00 94 1018.4
20260903161550 74 238 0.0 0.0 0.00 0.00 0.00 94 1016.7
20260903161337 74 238 0.0 0.0 0.00 0.00 0.00 94 1018.1
20260903160850 74 238 0.0 0.0 0.00 0.00 0.00 94 1018.5
20260903160344 74 238 0.0 0.0 0.00 0.00 0.00 94 1018.6
20260903160053 74 238 0.0 0.0 0.00 0.00 0.00 94 1017.4
20260903155852 74 238 0.0 0.0 0.00 0.00 0.00 94 1018.9
20260903155344 74 238 0.0 0.0 0.00 0.00 0.00 94 1019.1
20260903154857 74 238 0.0 0.0 0.00 0.00 0.00 94 1019.1
20260903154555 73 238 0.0 0.0 0.00 0.00 0.00 94 1017.8
20260903154349 74 238 0.0 0.0 0.00 0.00 0.00 94 1019.2
20260903153841 74 238 0.0 0.0 0.00 0.00 0.00 94 1019.0
20260903153339 74 238 0.0 0.0 0.00 0.00 0.00 94 1018.8
20260903153054 73 238 0.0 0.0 0.00 0.00 0.00 94 1017.3
20260903152853 74 238 0.0 0.0 0.00 0.00 0.00 94 1018.5
20260903152407 74 238 0.0 0.0 0.00 0.00 0.00 94 1018.7
20260903151857 73 238 0.0 2.6 0.00 0.00 0.00 94 1018.9
20260903151552 72 238 0.0 2.6 0.00 0.00 0.00 94 1017.5
20260903151349 72 238 0.0 2.6 0.00 0.00 0.00 94 1018.9
20260903150843 73 238 0.0 0.0 0.00 0.00 0.00 94 1018.9
20260903150356 73 238 0.0 0.0 0.00 0.00 0.00 95 1018.7
20260903150046 72 238 0.0 0.0 0.00 0.00 0.00 94 1017.4
20260903145845 72 238 0.0 0.0 0.00 0.00 0.00 95 1018.8
20260903145358 73 238 0.0 0.0 0.00 0.00 0.00 95 1019.1
20260903144555 71 123 0.0 0.0 0.00 0.00 0.00 94 1018.0
20260903144354 72 123 0.0 0.0 0.00 0.00 0.00 94 1019.2
20260903143907 72 123 0.0 7.8 0.00 0.00 0.00 94 1019.2
20260903143338 72 57 0.0 7.8 0.00 0.00 0.00 93 1019.2
20260903143012 72 57 0.9 7.8 0.00 0.00 0.00 94 1018.1
20260903142912 72 93 0.9 7.0 0.00 0.00 0.00 94 1019.5
20260903142343 72 146 0.0 0.0 0.00 0.00 0.00 93 1018.6
20260903141836 72 146 0.0 0.9 0.00 0.00 0.00 92 1018.0
20260903141550 71 146 0.0 2.6 0.00 0.00 0.00 92 1016.5
20260903141349 72 146 0.0 4.3 0.00 0.00 0.00 92 1017.9
20260903140843 72 120 0.9 4.3 0.00 0.00 0.00 92 1017.7
20260903140358 73 254 2.6 6.1 0.00 0.00 0.00 91 1017.9
20260903140043 72 109 2.6 6.1 0.00 0.00 0.00 91 1016.8
20260903135929 73 69 2.6 6.1 0.00 0.00 0.00 91 1018.3
20260903134546 73 171 0.0 0.0 0.00 0.00 0.00 90 1016.9
20260903133040 73 70 0.0 0.0 0.00 0.00 0.00 91 1016.9
20260903131538 72 80 0.0 0.0 0.00 0.00 0.00 94 1017.2
20260903130036 70 80 0.0 0.0 0.00 0.00 0.00 95 1017.0
20260903124535 70 80 0.0 0.0 0.00 0.00 0.00 95 1017.1
20260903123038 70 80 0.0 0.0 0.00 0.00 0.00 95 1017.4
20260903121535 70 225 0.0 0.0 0.00 0.00 0.00 95 1017.4
20260903120036 70 224 0.0 0.0 0.00 0.00 0.00 95 1017.7
20260903114552 70 224 0.0 0.0 0.00 0.00 0.00 95 1017.9
20260903113031 70 74 0.0 0.0 0.00 0.00 0.00 95 1017.5